EW5238 Weather Reports


Display with metric or nautical units.
time (UTC)temp
F
wind
direction
speed
MPH
gust
MPH
rain 1hr
in
rain 24hr
in
rain mn
in
humidity
%
barometer
mb
20240624121933 78 172 0.0 0.0 0.00 0.00 0.00 1 1012.2
20240624121707 79 172 0.0 0.0 0.00 0.00 0.00 1 1012.2
20240624120932 79 172 0.0 0.0 0.00 0.00 0.00 1 1012.2
20240624120431 78 172 0.0 0.0 0.00 0.00 0.00 1 1012.2
20240624115930 77 172 0.0 0.0 0.00 0.00 0.00 1 1012.1
20240624115427 76 172 0.0 0.0 0.00 0.00 0.00 1 1012.1
20240624114927 76 172 0.0 0.0 0.00 0.00 0.00 1 1012.1
20240624114427 76 172 0.0 0.0 0.00 0.00 0.00 1 1011.9
20240624114159 76 172 0.0 0.0 0.00 0.00 0.00 1 1011.8
20240624113426 76 172 0.0 0.0 0.00 0.00 0.00 1 1011.8
20240624113156 76 172 0.0 0.0 0.00 0.00 0.00 1 1011.8
20240624112420 76 172 0.0 0.0 0.00 0.00 0.00 1 1011.8
20240624111920 76 172 0.0 0.0 0.00 0.00 0.00 1 1011.7
20240624111420 76 172 0.0 0.0 0.00 0.00 0.00 1 1011.7
20240624110921 76 172 0.0 0.0 0.00 0.00 0.00 1 1011.7
20240624110420 76 172 0.0 0.0 0.00 0.00 0.00 1 1011.7
20240624105918 76 172 0.0 0.0 0.00 0.00 0.00 1 1011.7
20240624105415 76 172 0.0 0.0 0.00 0.00 0.00 1 1011.7
20240624104913 76 172 0.0 0.0 0.00 0.00 0.00 1 1011.6
20240624104414 76 172 0.0 0.0 0.00 0.00 0.00 1 1011.5
20240624103916 76 172 0.0 0.0 0.00 0.00 0.00 1 1011.5
20240624103643 76 172 0.0 0.0 0.00 0.00 0.00 1 1011.4
20240624102913 76 172 0.0 0.0 0.00 0.00 0.00 1 1011.4
20240624102407 76 172 0.0 0.0 0.00 0.00 0.00 1 1011.4
20240624102138 76 172 0.0 0.0 0.00 0.00 0.00 1 1011.3
20240624101402 76 172 0.0 0.0 0.00 0.00 0.00 1 1011.3
20240624100900 76 172 0.0 0.0 0.00 0.00 0.00 1 1011.3
20240624100631 76 172 0.0 0.0 0.00 0.00 0.00 1 1011.2
20240624095855 76 172 0.0 0.0 0.00 0.00 0.00 1 1011.2
20240624095353 77 172 0.0 0.0 0.00 0.00 0.00 1 1011.2
20240624095123 76 172 0.0 0.0 0.00 0.00 0.00 1 1011.2
20240624094347 77 172 0.0 0.0 0.00 0.00 0.00 1 1011.2
20240624094118 77 172 0.0 0.0 0.00 0.00 0.00 1 1011.3
20240624093346 77 172 0.0 0.0 0.00 0.00 0.00 1 1011.2
20240624092841 77 172 0.0 0.0 0.00 0.00 0.00 1 1011.3
20240624092339 77 172 0.0 0.0 0.00 0.00 0.00 1 1011.3
20240624092110 77 172 0.0 0.0 0.00 0.00 0.00 1 1011.3
20240624091335 77 172 0.0 0.0 0.00 0.00 0.00 1 1011.4
20240624091105 77 172 0.0 0.0 0.00 0.00 0.00 1 1011.4
20240624090332 77 172 0.0 0.0 0.00 0.00 0.00 1 1011.5
20240624085831 78 172 0.0 0.0 0.00 0.00 0.00 1 1011.5
20240624085328 78 172 0.0 0.0 0.00 0.00 0.00 1 1011.5
20240624084828 78 172 0.0 0.0 0.00 0.00 0.00 1 1011.6
20240624084330 78 172 0.0 0.0 0.00 0.00 0.00 1 1011.5
20240624083828 78 172 0.0 0.0 0.00 0.00 0.00 1 1011.5
20240624083557 78 172 0.0 0.0 0.00 0.00 0.00 1 1011.5
20240624082825 78 172 0.0 0.0 0.00 0.00 0.00 1 1011.5
20240624082326 78 172 0.0 0.0 0.00 0.00 0.00 1 1011.5
20240624082055 78 172 0.0 0.0 0.00 0.00 0.00 1 1011.5
20240624081322 78 172 0.0 0.0 0.00 0.00 0.00 1 1011.5
20240624080822 78 172 0.0 0.0 0.00 0.00 0.00 1 1011.5
20240624080317 78 171 0.0 0.0 0.00 0.00 0.00 1 1011.5
20240624075318 79 170 0.0 0.0 0.00 0.00 0.00 1 1011.5
20240624074819 79 170 0.0 0.0 0.00 0.00 0.00 1 1011.6
20240624074317 79 170 0.0 0.0 0.00 0.00 0.00 1 1011.5
20240624073816 79 162 0.0 0.0 0.00 0.00 0.00 1 1011.5
20240624073542 79 162 0.0 0.0 0.00 0.00 0.00 1 1011.5
20240624073040 79 162 0.0 0.0 0.00 0.00 0.00 1 1011.5
20240624072307 79 152 0.0 0.0 0.00 0.00 0.00 1 1011.6
20240624071806 79 144 0.0 0.0 0.00 0.00 0.00 1 1011.5
20240624071305 79 144 0.0 1.0 0.00 0.00 0.00 1 1011.5
20240624070804 79 146 0.0 1.0 0.00 0.00 0.00 1 1011.6
20240624070536 79 147 0.0 1.0 0.00 0.00 0.00 1 1011.6
20240624070033 79 147 0.0 1.0 0.00 0.00 0.00 1 1011.6
20240624065306 79 148 0.0 0.0 0.00 0.00 0.00 1 1011.6
20240624065034 79 148 0.0 0.0 0.00 0.00 0.00 1 1011.7
20240624064304 79 148 0.0 0.0 0.00 0.00 0.00 1 1011.6
20240624063802 79 138 0.0 0.0 0.00 0.00 0.00 1 1011.7
20240624063304 79 138 0.0 0.0 0.00 0.00 0.00 1 1011.8
20240624062759 80 138 0.0 1.0 0.00 0.00 0.00 1 1011.7
20240624062259 80 138 0.0 1.0 0.00 0.00 0.00 1 1011.7
20240624061759 80 138 0.0 0.0 0.00 0.00 0.00 1 1011.7
20240624061531 80 138 0.0 0.0 0.00 0.00 0.00 1 1011.7
20240624061031 80 138 0.0 0.0 0.00 0.00 0.00 1 1011.9
20240624060301 80 138 0.0 0.0 0.00 0.00 0.00 1 1011.9
20240624055756 80 138 0.0 0.0 0.00 0.00 0.00 1 1011.9
20240624055255 80 138 0.0 0.0 0.00 0.00 0.00 1 1011.9
20240624054757 80 138 0.0 1.0 0.00 0.00 0.00 1 1011.9
20240624053756 80 181 0.0 1.0 0.00 0.00 0.00 1 1012.1
20240624053256 80 120 0.0 1.0 0.00 0.00 0.00 1 1012.1
20240624053028 81 132 0.0 3.0 0.00 0.00 0.00 1 1012.1
20240624052255 81 124 0.0 3.0 0.00 0.00 0.00 1 1012.1
20240624051250 81 133 0.0 2.0 0.00 0.00 0.00 1 1012.2
20240624050749 81 146 0.0 3.0 0.00 0.00 0.00 1 1012.3
20240624050243 81 142 0.0 3.0 0.00 0.00 0.00 1 1012.2
20240624045743 81 148 0.0 2.0 0.00 0.00 0.00 1 1012.2
20240624045241 81 130 1.0 3.0 0.00 0.00 0.00 1 1012.2
20240624044740 81 194 1.0 6.0 0.00 0.00 0.00 1 1012.2
20240624044239 81 143 2.0 6.0 0.00 0.00 0.00 1 1012.2
20240624043735 81 155 1.0 5.0 0.00 0.00 0.00 1 1012.1
20240624043235 82 169 1.0 5.0 0.00 0.00 0.00 1 1012.1
20240624042735 82 158 0.0 3.0 0.00 0.00 0.00 1 1011.9
20240624042234 82 193 0.0 3.0 0.00 0.00 0.00 1 1011.9
20240624041733 82 160 0.0 2.0 0.00 0.00 0.00 1 1011.9
20240624041233 82 184 0.0 2.0 0.00 0.00 0.00 1 1011.9
20240624040727 82 167 0.0 1.0 0.00 0.00 0.00 1 1011.8
20240624040225 82 142 0.0 3.0 0.00 0.00 0.00 1 1011.8
20240624035724 82 141 0.0 3.0 0.00 0.00 0.00 1 1011.7
20240624035225 82 140 0.0 3.0 0.00 0.00 0.00 1 1011.6
20240624034725 82 141 0.0 3.0 0.00 0.00 0.00 1 1011.6
20240624034224 82 160 0.0 3.0 0.00 0.00 0.00 1 1011.6
20240624033721 82 158 0.0 3.0 0.00 0.00 0.00 1 1011.5
20240624033220 82 164 0.0 3.0 0.00 0.00 0.00 1 1011.5
20240624032717 82 158 0.0 3.0 0.00 0.00 0.00 1 1011.4
20240624032451 82 175 0.0 2.0 0.00 0.00 0.00 1 1011.3
20240624031717 82 192 0.0 2.0 0.00 0.00 0.00 1 1011.3
20240624031217 83 164 0.0 0.0 0.00 0.00 0.00 1 1011.3
20240624030728 83 157 0.0 0.0 0.00 0.00 0.00 1 1011.2
20240624030217 83 154 0.0 0.0 0.00 0.00 0.00 1 1011.2
20240624025719 83 188 0.0 3.0 0.00 0.00 0.00 1 1011.1
20240624025225 83 156 0.0 3.0 0.00 0.00 0.00 1 1011.0
20240624024717 83 202 0.0 2.0 0.00 0.00 0.00 1 1011.0
20240624024209 83 222 0.0 2.0 0.00 0.00 0.00 1 1010.9
20240624023714 83 176 0.0 1.0 0.00 0.00 0.00 1 1010.8
20240624023211 84 231 0.0 1.0 0.00 0.00 0.00 1 1010.8
20240624022710 84 223 0.0 0.0 0.00 0.00 0.00 1 1010.7
20240624022209 84 165 0.0 0.0 0.00 0.00 0.00 1 1010.7
20240624021711 84 165 0.0 0.0 0.00 0.00 0.00 1 1010.6
20240624021205 84 165 0.0 0.0 0.00 0.00 0.00 5 1010.5
20240624020705 84 165 0.0 0.0 0.00 0.00 0.00 9 1010.5
20240624020206 84 165 0.0 0.0 0.00 0.00 0.00 14 1010.4
20240624015707 85 165 0.0 0.0 0.00 0.00 0.00 18 1010.4
20240624015208 85 150 0.0 0.0 0.00 0.00 0.00 23 1010.4
20240624014707 85 150 0.0 0.0 0.00 0.00 0.00 26 1010.4
20240624014202 85 203 0.0 0.0 0.00 0.00 0.00 31 1010.4
20240624013702 86 162 0.0 2.0 0.00 0.00 0.00 35 1010.4
20240624013202 86 162 0.0 3.0 0.00 0.00 0.00 37 1010.4
20240624012703 86 148 0.0 3.0 0.00 0.00 0.00 37 1010.4
20240624012202 87 164 0.0 3.0 0.00 0.00 0.00 36 1010.3
20240624011703 87 142 0.0 3.0 0.00 0.00 0.00 38 1010.3
20240624011427 87 145 0.0 2.0 0.00 0.00 0.00 42 1010.4
20240624010657 87 134 0.0 3.0 0.00 0.00 0.00 46 1010.3
20240624010203 88 134 0.0 3.0 0.00 0.00 0.00 50 1010.3
20240624005657 88 136 0.0 2.0 0.00 0.00 0.00 54 1010.3
20240624005158 88 147 0.0 3.0 0.00 0.00 0.00 57 1010.3
20240624004659 89 129 1.0 4.0 0.00 0.00 0.00 60 1010.3
20240624004435 89 148 1.0 6.0 0.00 0.00 0.00 62 1010.3
20240624003657 89 139 0.0 6.0 0.00 0.00 0.00 63 1010.3
20240624003155 90 124 0.0 1.0 0.00 0.00 0.00 63 1010.2
20240624002656 90 96 0.0 1.0 0.00 0.00 0.00 63 1010.1
20240624002157 90 96 0.0 1.0 0.00 0.00 0.00 63 1010.1
20240624001654 90 110 0.0 0.0 0.00 0.00 0.00 63 1010.1
20240624001151 91 110 0.0 0.0 0.00 0.00 0.00 63 1010.1
20240624000650 91 119 0.0 1.0 0.00 0.00 0.00 63 1010.1
20240624000150 91 110 0.0 1.0 0.00 0.00 0.00 63 1010.1
20240623235651 91 115 0.0 1.0 0.00 0.00 0.00 63 1010.1
20240623235149 91 117 0.0 3.0 0.00 0.00 0.00 63 1010.1
20240623234647 91 113 1.0 5.0 0.00 0.00 0.00 63 1010.1
20240623234146 92 91 1.0 5.0 0.00 0.00 0.00 62 1010.1
20240623233639 92 98 0.0 3.0 0.00 0.00 0.00 63 1010.0
20240623233139 92 128 0.0 3.0 0.00 0.00 0.00 61 1010.0
20240623232636 92 107 0.0 2.0 0.00 0.00 0.00 62 1010.0
20240623232136 92 108 0.0 2.0 0.00 0.00 0.00 62 1010.1
20240623231909 92 108 1.0 4.0 0.00 0.00 0.00 61 1010.1
20240623231134 92 90 0.0 4.0 0.00 0.00 0.00 61 1010.1
20240623230629 93 98 0.0 2.0 0.00 0.00 0.00 61 1010.1
20240623230129 93 113 0.0 1.0 0.00 0.00 0.00 61 1010.1
20240623225628 93 129 0.0 1.0 0.00 0.00 0.00 61 1010.2
20240623225131 92 147 0.0 2.0 0.00 0.00 0.00 62 1010.3
20240623224629 93 82 1.0 4.0 0.00 0.00 0.00 60 1010.3
20240623224127 94 106 0.0 4.0 0.00 0.00 0.00 60 1010.3
20240623223626 94 114 0.0 4.0 0.00 0.00 0.00 59 1010.3
20240623223126 94 118 0.0 4.0 0.00 0.00 0.00 58 1010.3
20240623222624 94 129 1.0 4.0 0.00 0.00 0.00 59 1010.4
20240623222124 94 115 0.0 4.0 0.00 0.00 0.00 60 1010.5
20240623221623 94 105 0.0 2.0 0.00 0.00 0.00 59 1010.4
20240623221123 94 94 0.0 0.0 0.00 0.00 0.00 57 1010.5
20240623220620 94 94 0.0 1.0 0.00 0.00 0.00 57 1010.6
20240623220116 94 118 0.0 4.0 0.00 0.00 0.00 59 1010.7
20240623215613 94 76 0.0 4.0 0.00 0.00 0.00 58 1010.8
20240623215112 95 87 0.0 2.0 0.00 0.00 0.00 57 1010.9
20240623214611 94 121 0.0 2.0 0.00 0.00 0.00 59 1010.9
20240623214338 94 230 0.0 0.0 0.00 0.00 0.00 58 1011.0
20240623213604 93 112 0.0 0.0 0.00 0.00 0.00 58 1011.1
20240623213100 93 99 0.0 2.0 0.00 0.00 0.00 58 1011.1
20240623212604 93 84 1.0 5.0 0.00 0.00 0.00 59 1011.2
20240623212102 93 95 1.0 5.0 0.00 0.00 0.00 59 1011.2
20240623211602 93 98 0.0 2.0 0.00 0.00 0.00 60 1011.2
20240623211328 93 76 0.0 1.0 0.00 0.00 0.00 61 1011.3
20240623210558 93 80 0.0 2.0 0.00 0.00 0.00 60 1011.4
20240623210057 92 64 0.0 4.0 0.00 0.00 0.00 62 1011.4
20240623205823 92 94 0.0 4.0 0.00 0.00 0.00 60 1011.4
20240623205052 92 84 1.0 4.0 0.00 0.00 0.00 59 1011.5
20240623204551 93 68 1.0 4.0 0.00 0.00 0.00 58 1011.5
20240623204048 93 49 1.0 5.0 0.00 0.00 0.00 61 1011.6
20240623203546 93 163 1.0 5.0 0.00 0.00 0.00 59 1011.6
20240623203046 93 94 1.0 5.0 0.00 0.00 0.00 59 1011.7
20240623202548 92 158 1.0 8.0 0.00 0.00 0.00 58 1011.8
20240623202051 92 134 1.0 8.0 0.00 0.00 0.00 60 1011.8
20240623201545 91 104 0.0 1.0 0.00 0.00 0.00 62 1011.9
20240623201041 91 95 0.0 3.0 0.00 0.00 0.00 62 1012.1
20240623200540 92 85 1.0 7.0 0.00 0.00 0.00 60 1012.2
20240623200041 92 144 2.0 7.0 0.00 0.00 0.00 61 1012.1
20240623195541 91 116 2.0 7.0 0.00 0.00 0.00 62 1012.1
20240623195041 91 93 1.0 7.0 0.00 0.00 0.00 62 1012.2
20240623194539 91 126 0.0 3.0 0.00 0.00 0.00 63 1012.2
20240623194038 90 137 1.0 5.0 0.00 0.00 0.00 63 1012.3
20240623193808 91 117 1.0 7.0 0.00 0.00 0.00 62 1012.4
20240623193038 92 90 1.0 7.0 0.00 0.00 0.00 62 1012.4
20240623192536 92 93 1.0 6.0 0.00 0.00 0.00 63 1012.4
20240623192306 92 106 1.0 6.0 0.00 0.00 0.00 62 1012.4
20240623191533 92 80 1.0 4.0 0.00 0.00 0.00 62 1012.6
20240623191027 91 97 1.0 8.0 0.00 0.00 0.00 63 1012.6
20240623190528 91 140 0.0 8.0 0.00 0.00 0.00 63 1012.6
20240623190027 92 84 1.0 5.0 0.00 0.00 0.00 62 1012.7
20240623185525 92 82 1.0 5.0 0.00 0.00 0.00 63 1012.8
20240623185025 91 80 0.0 3.0 0.00 0.00 0.00 63 1012.8
20240623184525 91 73 1.0 3.0 0.00 0.00 0.00 62 1012.8
20240623184023 92 151 2.0 9.0 0.00 0.00 0.00 61 1012.8
20240623183523 92 120 1.0 9.0 0.00 0.00 0.00 62 1012.9
20240623183023 92 58 1.0 7.0 0.00 0.00 0.00 62 1012.9
20240623182523 90 165 1.0 6.0 0.00 0.00 0.00 63 1013.0
20240623182022 90 191 1.0 4.0 0.00 0.00 0.00 63 1013.0
20240623181522 90 67 2.0 7.0 0.00 0.00 0.00 62 1013.1
20240623181024 90 107 1.0 7.0 0.00 0.00 0.00 63 1013.1
20240623180748 91 90 1.0 4.0 0.00 0.00 0.00 63 1013.2
20240623180018 91 141 1.0 6.0 0.00 0.00 0.00 63 1013.2
20240623175019 90 169 0.0 1.0 0.00 0.00 0.00 63 1013.2
20240623174516 90 119 1.0 4.0 0.00 0.00 0.00 63 1013.3
20240623174016 90 121 2.0 5.0 0.00 0.00 0.00 63 1013.4
20240623173514 90 88 1.0 5.0 0.00 0.00 0.00 62 1013.4
20240623173010 89 131 1.0 5.0 0.00 0.00 0.00 62 1013.4
20240623172748 89 212 1.0 6.0 0.00 0.00 0.00 62 1013.6
20240623172010 89 134 1.0 6.0 0.00 0.00 0.00 63 1013.6
20240623171511 89 186 1.0 4.0 0.00 0.00 0.00 63 1013.6
20240623171012 89 79 0.0 4.0 0.00 0.00 0.00 61 1013.6
20240623170513 89 174 1.0 4.0 0.00 0.00 0.00 63 1013.6
20240623170009 89 218 2.0 4.0 0.00 0.00 0.00 62 1013.6
20240623165509 88 108 1.0 4.0 0.00 0.00 0.00 62 1013.6
20240623165239 89 92 1.0 5.0 0.00 0.00 0.00 62 1013.6
20240623164505 89 162 0.0 5.0 0.00 0.00 0.00 62 1013.7
20240623164235 89 225 1.0 5.0 0.00 0.00 0.00 60 1013.7
20240623163504 89 128 1.0 5.0 0.00 0.00 0.00 61 1013.7
20240623163237 89 207 0.0 4.0 0.00 0.00 0.00 62 1013.8
20240623162505 89 91 0.0 4.0 0.00 0.00 0.00 62 1013.8
20240623161959 89 237 0.0 3.0 0.00 0.00 0.00 60 1013.8
20240623161500 88 146 0.0 4.0 0.00 0.00 0.00 60 1013.8
20240623161002 89 155 0.0 4.0 0.00 0.00 0.00 60 1013.8
20240623160731 89 151 0.0 4.0 0.00 0.00 0.00 60 1013.9
20240623160000 88 122 0.0 4.0 0.00 0.00 0.00 58 1013.8
20240623155501 87 202 0.0 5.0 0.00 0.00 0.00 50 1013.9
20240623154956 86 107 1.0 5.0 0.00 0.00 0.00 51 1013.9
20240623154456 86 114 1.0 5.0 0.00 0.00 0.00 55 1014.0
20240623153956 86 108 1.0 4.0 0.00 0.00 0.00 51 1014.0
20240623153457 86 146 1.0 5.0 0.00 0.00 0.00 52 1013.9
20240623152957 86 96 1.0 6.0 0.00 0.00 0.00 53 1013.8
20240623152458 86 139 1.0 6.0 0.00 0.00 0.00 56 1013.8
20240623151950 86 152 1.0 4.0 0.00 0.00 0.00 48 1013.8
20240623151450 86 94 0.0 3.0 0.00 0.00 0.00 48 1013.9
20240623150949 85 104 0.0 2.0 0.00 0.00 0.00 42 1013.8
20240623150448 85 131 0.0 3.0 0.00 0.00 0.00 46 1013.9
20240623145947 85 130 0.0 3.0 0.00 0.00 0.00 37 1013.9
20240623145446 84 115 0.0 4.0 0.00 0.00 0.00 26 1014.0
20240623144945 84 115 0.0 4.0 0.00 0.00 0.00 25 1014.0
20240623144438 83 95 0.0 2.0 0.00 0.00 0.00 21 1013.9
20240623143939 83 111 0.0 4.0 0.00 0.00 0.00 20 1014.0
20240623143438 83 106 0.0 4.0 0.00 0.00 0.00 17 1014.0
20240623142939 83 96 1.0 4.0 0.00 0.00 0.00 15 1014.0
20240623142440 83 117 1.0 4.0 0.00 0.00 0.00 23 1014.0
20240623141938 83 163 0.0 2.0 0.00 0.00 0.00 17 1014.0
20240623141437 83 105 0.0 1.0 0.00 0.00 0.00 19 1014.2
20240623140934 83 105 0.0 1.0 0.00 0.00 0.00 22 1014.2
20240623140433 83 134 0.0 1.0 0.00 0.00 0.00 23 1014.2
20240623135933 83 131 0.0 1.0 0.00 0.00 0.00 23 1014.2
20240623135432 83 131 0.0 0.0 0.00 0.00 0.00 17 1014.2
20240623134932 83 127 0.0 0.0 0.00 0.00 0.00 24 1014.3
20240623134427 83 138 0.0 0.0 0.00 0.00 0.00 19 1014.1
20240623133926 82 153 0.0 0.0 0.00 0.00 0.00 12 1014.1
20240623133423 82 153 0.0 0.0 0.00 0.00 0.00 12 1014.1
20240623132922 82 153 0.0 0.0 0.00 0.00 0.00 1 1014.1
20240623132420 82 153 0.0 0.0 0.00 0.01 0.00 1 1014.1
20240623131913 82 153 0.0 0.0 0.00 0.01 0.00 1 1014.0
20240623131411 81 153 0.0 0.0 0.00 0.01 0.00 1 1013.9
20240623130909 82 153 0.0 0.0 0.00 0.01 0.00 1 1013.9
20240623130408 81 153 0.0 0.0 0.00 0.01 0.00 1 1013.9
20240623125906 80 153 0.0 0.0 0.00 0.01 0.00 1 1013.9
20240623125630 78 153 0.0 0.0 0.00 0.01 0.00 1 1013.8
20240623124858 76 153 0.0 0.0 0.00 0.01 0.00 1 1013.8
20240623124356 76 153 0.0 0.0 0.00 0.01 0.00 1 1013.8
20240623123854 75 153 0.0 0.0 0.00 0.01 0.00 1 1013.8
20240623122846 74 153 0.0 0.0 0.00 0.01 0.00 1 1013.7
20240623122345 74 153 0.0 0.0 0.00 0.01 0.00 1 1013.7